Weather History for Houlton, ME

Change the Weather History Date:

Thursday, February 21, 2013

  Actual Average Record
Temperature  
Mean Temperature 29 °F 17 °F  
Max Temperature 34 °F 29 °F 50 °F (1953)
Min Temperature 23 °F 5 °F -36 °F (1993)
Degree Days  
Heating Degree Days 36 48  
Month to date heating degree days 1002 1070  
Since 1 July heating degree days 5799 6245  
Cooling Degree Days 0 0  
Month to date cooling degree days 0 0  
Year to date cooling degree days 0 0  
Moisture  
Dew Point 23 °F    
Average Humidity 76    
Maximum Humidity 82    
Minimum Humidity 69    
Precipitation  
Precipitation 0.04 in 0.07 in 0.75 in (1989)
Month to date precipitation 0.89 1.48  
Year to date precipitation 2.35 4.34  
Sea Level Pressure  
Sea Level Pressure 29.73 in    
Wind  
Wind Speed 12 mph (NNW)    
Max Wind Speed 25 mph    
Max Gust Speed 33 mph    
Visibility 6 miles    
Events Snow    
T = Trace of Precipitation, MM = Missing Value Source: NWS Daily Summary

Daily Weather History Graph

Daily Weather History Graph

Search for Another Location

Airport:

Trip Planner

Search our weather history database for the weather conditions in past years. The results will help you decide how hot, cold, wet, or windy it might be!

Date:

Astronomy

Feb. 21, 2013 Rise Set
Actual Time 6:23 AM EST 5:06 PM EST
Civil Twilight 5:53 AM EST 5:36 PM EST
Nautical Twilight 5:18 AM EST 6:11 PM EST
Astronomical Twilight 4:44 AM EST 6:46 PM EST
Moon 1:09 PM EST (2/21) 3:35 AM EST (2/21)
Length of Visible Light 11h 43m
Length of Day
10h 42m
Waxing Gibbous, 83% of the Moon is Illuminated
Feb 21
Waxing Gibbous
Feb 25
Full
Mar 4
Last Quarter
Mar 11
New
Mar 19
First Quarter

Hourly Weather History & Observations

Time (EST) Temp. Windchill Dew Point Humidity Pressure Visibility Wind Dir Wind Speed Gust Speed Precip Events Conditions
12:53 AM 24.1 °F 18.2 °F 18.0 °F 77% 29.49 in 10.0 mi WSW 4.6 mph - N/A   Mostly Cloudy
1:53 AM 24.1 °F 17.0 °F 18.0 °F 77% 29.49 in 10.0 mi WSW 5.8 mph - N/A   Overcast
2:16 AM 24.8 °F 20.5 °F 19.4 °F 80% 29.47 in 10.0 mi West 3.5 mph - N/A   Overcast
2:53 AM 24.1 °F 18.2 °F 19.0 °F 81% 29.50 in 10.0 mi WSW 4.6 mph - N/A   Overcast
3:53 AM 25.0 °F 20.7 °F 19.9 °F 81% 29.52 in 10.0 mi West 3.5 mph - N/A   Overcast
4:53 AM 26.1 °F 19.4 °F 19.9 °F 78% 29.53 in 10.0 mi West 5.8 mph - 0.00 in   Overcast
5:53 AM 26.1 °F 18.4 °F 19.9 °F 78% 29.54 in 10.0 mi West 6.9 mph - N/A   Overcast
6:53 AM 25.0 °F 20.7 °F 19.9 °F 81% 29.57 in 10.0 mi West 3.5 mph - N/A   Overcast
7:53 AM 25.0 °F 19.3 °F 19.9 °F 81% 29.59 in 3.0 mi WNW 4.6 mph - 0.00 in Snow Light Snow
8:50 AM 26.6 °F 21.2 °F 19.4 °F 74% 29.58 in 2.5 mi WNW 4.6 mph - 0.00 in Snow Light Snow
8:53 AM 26.1 °F 20.5 °F 19.9 °F 78% 29.61 in 2.0 mi WNW 4.6 mph - 0.00 in Snow Light Snow
9:20 AM 26.6 °F 21.2 °F 21.2 °F 80% 29.59 in 2.5 mi WNW 4.6 mph - 0.00 in Snow Light Snow
9:53 AM 28.0 °F 24.2 °F 23.0 °F 81% 29.62 in 3.0 mi Variable 3.5 mph - 0.00 in Snow Light Snow
10:53 AM 28.9 °F - 25.0 °F 85% 29.63 in 2.5 mi Calm Calm - 0.00 in Snow Light Snow
10:59 AM 30.2 °F - 24.8 °F 80% 29.61 in 1.2 mi Calm Calm - 0.00 in Snow Light Snow
11:40 AM 33.8 °F 25.3 °F 28.4 °F 81% 29.62 in 2.0 mi North 11.5 mph - 0.02 in Snow Light Snow
11:53 AM 33.1 °F 23.9 °F 28.0 °F 82% 29.64 in 2.0 mi North 12.7 mph - 0.03 in Snow Light Snow
12:22 PM 33.8 °F 25.3 °F 28.4 °F 81% 29.63 in 4.0 mi North 11.5 mph - 0.00 in Snow Light Snow
12:39 PM 33.8 °F 23.5 °F 26.6 °F 75% 29.64 in 2.0 mi North 16.1 mph - 0.00 in Snow Light Snow
12:53 PM 34.0 °F 23.0 °F 27.0 °F 75% 29.67 in 5.0 mi North 18.4 mph - 0.00 in Snow Light Snow
1:53 PM 34.0 °F 23.8 °F 27.0 °F 75% 29.70 in 6.0 mi NNE 16.1 mph - 0.01 in Snow Light Snow
2:13 PM 33.8 °F 22.5 °F 26.6 °F 75% 29.69 in 5.0 mi North 19.6 mph 26.5 mph 0.00 in Snow Light Snow
2:53 PM 33.1 °F 19.8 °F 27.0 °F 78% 29.74 in 3.0 mi NNE 26.5 mph 33.4 mph 0.00 in Snow Light Snow
3:53 PM 33.1 °F 22.2 °F 26.1 °F 75% 29.78 in 9.0 mi North 17.3 mph - 0.00 in   Overcast
4:38 PM 33.8 °F 23.5 °F 26.6 °F 75% 29.80 in 1.8 mi North 16.1 mph 24.2 mph 0.00 in Snow Light Snow
4:50 PM 32.0 °F 21.6 °F 26.6 °F 80% 29.81 in 3.0 mi North 15.0 mph 24.2 mph 0.00 in Snow Light Snow
4:53 PM 32.0 °F 20.8 °F 27.0 °F 82% 29.83 in 5.0 mi North 17.3 mph 24.2 mph 0.00 in Snow Light Snow
5:53 PM 32.0 °F 19.5 °F 25.0 °F 75% 29.89 in 8.0 mi North 21.9 mph 28.8 mph 0.00 in   Overcast
6:53 PM 30.9 °F 19.1 °F 24.1 °F 76% 29.94 in 10.0 mi North 18.4 mph 26.5 mph 0.00 in   Overcast
7:53 PM 30.9 °F 19.1 °F 24.1 °F 76% 29.99 in 10.0 mi North 18.4 mph 26.5 mph N/A   Overcast
8:53 PM 30.9 °F 19.4 °F 23.0 °F 72% 30.03 in 10.0 mi North 17.3 mph 25.3 mph N/A   Overcast
9:21 PM 30.2 °F 17.8 °F 23.0 °F 75% 30.03 in 10.0 mi North 19.6 mph 25.3 mph N/A   Overcast
9:53 PM 30.0 °F 21.1 °F 21.9 °F 72% 30.07 in 10.0 mi North 10.4 mph 20.7 mph N/A   Overcast
10:30 PM 28.4 °F 17.0 °F 21.2 °F 74% 30.06 in 10.0 mi North 15.0 mph - N/A   Overcast
10:53 PM 28.9 °F 19.2 °F 21.0 °F 72% 30.10 in 10.0 mi North 11.5 mph - N/A   Overcast
11:53 PM 27.0 °F 15.6 °F 19.9 °F 75% 30.13 in 10.0 mi North 13.8 mph - N/A   Mostly Cloudy